Location: Albany
(35.0000°S, 118.0000°E)
Time: 15:33:01
(UTC-04:00)

Atlas Centaur 2 - Visible Passes

Search period start: 30 June 2016 00:00
Search period end: 10 July 2016 00:00
Orbit: 459 x 1315 km, 30.4° (Epoch: 29 June)

Date Brightness Start Highest point End Pass type
(mag) Time Alt. Az. Time Alt. Az. Time Alt. Az.
30 Jun 2.1 06:49:10 10° WNW 06:52:52 43° N 06:53:41 38° NE visible
01 Jul 2.0 06:46:21 10° WNW 06:49:59 44° N 06:50:58 37° NE visible
02 Jul 2.0 06:43:33 10° WNW 06:47:08 43° N 06:48:18 34° NE visible
03 Jul 2.1 06:40:46 10° WNW 06:44:17 41° N 06:45:40 30° NE visible
04 Jul 2.2 06:38:00 10° WNW 06:41:26 38° N 06:43:04 25° NE visible
05 Jul 2.4 06:35:16 10° WNW 06:38:34 33° N 06:40:34 20° NE visible
06 Jul 2.7 06:32:32 10° WNW 06:35:43 28° NNW 06:38:07 15° NE visible
07 Jul 3.0 06:29:52 10° WNW 06:32:50 24° NNW 06:35:47 11° NE visible
08 Jul 3.4 06:27:17 10° WNW 06:29:56 19° NNW 06:32:40 10° NNE visible
09 Jul 3.7 06:24:50 10° WNW 06:27:01 15° NNW 06:29:13 10° NNE visible
